Met observations

Date (UTC) Wind direction m/s kts. Vis. * Weather * Cloud * Temperature (°C) Dew point (°C) Air pressure (Hp)
29-09 18:33 5 10 VIS 10 km FBL DZ FEW 400ft SCT 600ft BKN 800ft 7.6 6.6 1001.3
29-09 18:23 7 13 VIS 10 km FBL DZ FEW 400ft SCT 600ft BKN 800ft 7.5 6.4 1001.5
29-09 18:13 6 11 VIS 10 km FBL DZ FEW 400ft SCT 600ft BKN 800ft 7.4 6.4 1001.7
29-09 18:03 6 11 VIS 10 km FBL DZ FEW 400ft SCT 600ft BKN 800ft 7.4 6.2 1002.0
29-09 17:53 7 13 VIS 10 km FBL DZ FEW 400ft SCT 600ft BKN 800ft 7.7 6.2 1002.2
29-09 17:43 7 13 VIS 10 km FBL DZ FEW 400ft SCT 600ft BKN 800ft 7.8 6.7 1002.4
29-09 17:33 6 11 VIS 10 km FBL DZ FEW 400ft SCT 600ft BKN 800ft 7.5 6.4 1002.8
29-09 17:23 7 13 VIS 10 km FBL DZ FEW 400ft SCT 600ft BKN 800ft 7.6 6.1 1003.0
29-09 17:13 5 10 VIS 10 km FBL DZ FEW 400ft SCT 600ft BKN 800ft 7.7 6.2 1003.1
29-09 17:03 7 13 VIS 10 km FBL DZ FEW 400ft SCT 600ft BKN 800ft 7.7 6.4 1003.2
29-09 16:53 5 10 VIS 10 km FBL DZ FEW 400ft SCT 600ft BKN 800ft 7.6 6.5 1003.1
29-09 16:43 5 10 VIS 10 km FBL DZ FEW 400ft SCT 600ft BKN 800ft 7.5 6.4 1003.1
29-09 16:33 6 11 VIS 10 km FBL DZ FEW 400ft SCT 600ft BKN 800ft 7.6 6.5 1003.2
29-09 16:23 6 12 VIS 10 km FBL DZ FEW 400ft SCT 600ft BKN 800ft 7.5 6.6 1003.6
29-09 16:13 4 08 VIS 10 km FBL DZ FEW 400ft SCT 600ft BKN 800ft 7.4 6.6 1003.7
29-09 16:03 5 10 VIS 10 km FBL DZ FEW 400ft SCT 600ft BKN 800ft 7.3 6.5 1003.9
29-09 15:53 6 12 VIS 10 km FBL DZ FEW 400ft SCT 600ft BKN 800ft 7.5 6.6 1004.0
29-09 15:43 4 08 VIS 10 km FBL DZ FEW 400ft SCT 600ft BKN 800ft 7.5 6.6 1004.0
29-09 15:33 4 08 VIS 10 km FBL DZ FEW 400ft SCT 600ft BKN 800ft 7.3 6.3 1004.1
29-09 15:23 3 06 VIS 10 km FBL DZ FEW 400ft SCT 600ft BKN 800ft 7.5 6.3 1004.3
29-09 15:13 5 09 VIS 10 km FBL DZ FEW 400ft SCT 600ft BKN 800ft 7.6 6.2 1004.5
29-09 15:03 3 06 VIS 10 km FBL DZ FEW 400ft SCT 600ft BKN 800ft 7.5 6.0 1004.9
29-09 14:53 5 09 VIS 10 km FBL DZ FEW 400ft SCT 600ft BKN 800ft 7.3 6.0 1005.1
29-09 14:43 5 09 VIS 10 km FBL DZ FEW 400ft SCT 600ft BKN 800ft 7.2 6.6 1005.4
29-09 14:33 5 09 VIS 10 km FEW 400ft SCT 600ft BKN 800ft 7.3 6.8 1005.6
29-09 14:23 4 08 VIS 10 km FEW 400ft SCT 600ft BKN 800ft 7.2 6.5 1006.0
29-09 14:13 4 07 VIS 10 km FEW 400ft SCT 600ft BKN 800ft 7.0 6.3 1006.1
29-09 14:03 5 10 VIS 10 km FEW 400ft SCT 600ft BKN 800ft 7.0 6.3 1006.3
29-09 13:53 4 07 VIS 10 km FEW 400ft SCT 600ft BKN 800ft 7.2 6.3 1006.3
29-09 13:43 4 07 VIS 10 km FEW 400ft SCT 600ft BKN 800ft 7.6 6.8 1006.4
29-09 13:33 4 08 VIS 10 km FEW 400ft SCT 600ft BKN 800ft 7.5 6.5 1006.4
29-09 13:23 3 05 VIS 10 km FEW 400ft SCT 600ft BKN 800ft 7.4 5.9 1006.5
29-09 13:13 4 07 VIS 10 km FEW 400ft SCT 600ft BKN 800ft 7.0 5.8 1006.6
29-09 13:03 3 06 VIS 10 km FEW 400ft SCT 600ft BKN 800ft 6.9 5.7 1006.5
29-09 12:53 4 07 VIS 10 km FEW 400ft SCT 600ft BKN 800ft 6.8 6.1 1006.5
29-09 12:43 3 06 VIS 10 km FEW 400ft SCT 600ft BKN 800ft 7.0 6.1 1006.5
29-09 12:33 3 06 VIS 10 km FEW 400ft SCT 600ft BKN 800ft 7.0 5.9 1006.6
29-09 12:23 3 06 VIS 10 km FEW 400ft SCT 600ft BKN 800ft 6.9 5.4 1006.7
29-09 12:13 4 07 VIS 10 km FEW 400ft SCT 600ft BKN 800ft 7.2 5.6 1006.7
29-09 12:03 4 07 VIS 10 km FEW 400ft SCT 600ft BKN 800ft 7.1 5.6 1006.8
29-09 11:53 4 07 VIS 10 km FEW 400ft SCT 600ft BKN 800ft 6.9 5.4 1006.8
29-09 11:43 3 05 VIS 10 km FEW 400ft SCT 600ft BKN 800ft 7.1 5.8 1006.9
29-09 11:33 2 03 VIS 10 km FEW 400ft SCT 600ft BKN 800ft 6.9 5.3 1007.0
29-09 11:23 2 04 VIS 10 km FEW 400ft SCT 600ft BKN 800ft 7.0 5.5 1007.2
29-09 11:13 3 06 VIS 10 km FEW 400ft SCT 600ft BKN 800ft 7.2 6.3 1007.4
29-09 11:03 3 06 VIS 10 km FEW 400ft SCT 600ft BKN 800ft 6.5 5.7 1007.4
29-09 10:53 3 05 VIS 10 km FEW 400ft SCT 600ft BKN 800ft 7.0 6.0 1007.4
29-09 10:43 2 04 VIS 10 km FEW 400ft SCT 600ft BKN 800ft 6.7 5.4 1007.5
29-09 10:33 2 03 VIS 10 km FBL SHRA FEW 1200ft BKN 1800ft 6.7 5.4 1007.5
29-09 10:23 1 02 VIS 10 km FBL SHRA FEW 1200ft BKN 1800ft 6.8 5.5 1007.6
29-09 10:13 2 03 VIS 10 km FBL SHRA FEW 1200ft BKN 1800ft 6.7 5.4 1007.6
29-09 10:03 2 03 VIS 10 km FBL SHRA FEW 1200ft BKN 1800ft 6.8 5.6 1007.7
29-09 09:53 1 02 VIS 10 km FBL SHRA FEW 1200ft BKN 1800ft 6.6 5.5 1007.7
29-09 09:43 2 04 VIS 10 km FBL SHRA FEW 1200ft BKN 1800ft 6.4 5.3 1007.7
29-09 09:33 0 00 VIS 10 km FBL SHRA FEW 1200ft BKN 1800ft 6.2 5.3 1007.7
29-09 09:23 1 02 VIS 10 km FBL SHRA FEW 1200ft BKN 1800ft 6.3 5.5 1007.9
29-09 09:13 1 01 VIS 10 km FBL SHRA FEW 1200ft BKN 1800ft 6.2 5.6 1008.0
29-09 09:03 1 02 VIS 10 km FBL SHRA FEW 1200ft BKN 1800ft 6.0 5.5 1008.0
29-09 08:53 1 01 VIS 10 km FBL SHRA FEW 1200ft BKN 1800ft 6.1 5.6 1007.9
29-09 08:43 1 01 VIS 10 km FBL SHRA FEW 1200ft BKN 1800ft 6.0 5.6 1008.1
29-09 08:33 1 01 VIS 10 km FBL SHRA FEW 1200ft BKN 1800ft 6.1 5.6 1008.3
29-09 08:23 1 02 VIS 10 km FBL SHRA FEW 1200ft BKN 1800ft 5.9 5.5 1008.2
29-09 08:13 1 01 VIS 10 km FBL SHRA FEW 1200ft BKN 1800ft 5.9 5.5 1008.3
29-09 08:03 1 01 VIS 10 km FBL SHRA FEW 1200ft BKN 1800ft 5.9 5.5 1008.4
29-09 07:53 1 02 VIS 10 km FBL SHRA FEW 1200ft BKN 1800ft 5.8 5.4 1008.3
29-09 07:43 1 02 VIS 10 km FBL SHRA FEW 1200ft BKN 1800ft 5.8 5.4 1008.4
29-09 07:33 1 01 VIS 10 km FBL SHRA FEW 1200ft BKN 1800ft 5.9 5.4 1008.5
29-09 07:23 1 01 VIS 10 km FBL SHRA FEW 1200ft BKN 1800ft 5.9 5.4 1008.4
29-09 07:13 0 00 VIS 10 km FBL SHRA FEW 1200ft BKN 1800ft 6.0 5.4 1008.4
29-09 07:03 1 01 VIS 10 km FBL SHRA FEW 1200ft BKN 1800ft 6.0 5.5 1008.5
29-09 06:53 1 01 VIS 10 km FBL SHRA FEW 1200ft BKN 1800ft 6.0 5.4 1008.6
29-09 06:43 1 01 VIS 10 km FBL SHRA FEW 1200ft BKN 1800ft 6.0 5.4 1008.7
29-09 06:33 1 02 VIS 10 km FBL SHRA FEW 1200ft BKN 1800ft 6.1 5.4 1008.6
29-09 06:23 1 01 VIS 10 km FBL SHRA FEW 1200ft BKN 1800ft 6.1 5.4 1008.6
29-09 06:13 1 01 VIS 10 km FBL SHRA FEW 1200ft BKN 1800ft 6.2 5.4 1008.5
29-09 06:03 1 01 VIS 10 km FBL SHRA FEW 1200ft BKN 1800ft 6.2 5.4 1008.6
29-09 05:53 2 03 VIS 10 km FBL SHRA FEW 1200ft BKN 1800ft 6.2 5.4 1008.7
29-09 05:43 2 04 VIS 10 km FBL SHRA FEW 1200ft BKN 1800ft 6.1 5.4 1008.7
29-09 05:33 1 02 VIS 10 km FBL SHRA FEW 1200ft BKN 1800ft 6.1 5.5 1008.7
29-09 05:23 1 01 VIS 10 km FBL SHRA FEW 1200ft BKN 1800ft 6.1 5.5 1008.7
29-09 05:13 2 03 VIS 10 km FBL SHRA FEW 1200ft BKN 1800ft 6.1 5.5 1008.7
29-09 05:03 2 03 VIS 10 km FBL SHRA FEW 1200ft BKN 1800ft 6.1 5.5 1008.6
29-09 04:53 1 02 VIS 10 km FBL SHRA FEW 1200ft BKN 1800ft 6.1 5.5 1008.5
29-09 04:43 1 02 VIS 10 km FBL SHRA FEW 1200ft BKN 1800ft 6.0 5.3 1008.6
29-09 04:33 1 02 VIS 10 km FBL SHRA FEW 1200ft BKN 1800ft 6.0 5.3 1008.6
29-09 04:23 1 01 VIS 10 km FBL SHRA FEW 1200ft BKN 1800ft 6.0 5.4 1008.7
29-09 04:13 1 01 VIS 10 km FBL SHRA FEW 1200ft BKN 1800ft 6.0 5.5 1008.7
29-09 04:03 1 01 VIS 10 km FBL SHRA FEW 1200ft BKN 1800ft 6.0 5.5 1008.7
29-09 03:53 1 02 VIS 10 km FBL SHRA FEW 1200ft BKN 1800ft 6.0 5.5 1008.7
29-09 03:43 2 03 VIS 10 km FBL SHRA FEW 1200ft BKN 1800ft 6.0 5.4 1008.7
29-09 03:33 2 03 VIS 10 km FBL SHRA FEW 1200ft BKN 1800ft 6.0 5.4 1008.8
29-09 03:23 2 03 VIS 10 km FBL SHRA FEW 1200ft BKN 1800ft 6.0 5.3 1008.8
29-09 03:13 1 02 VIS 10 km FBL SHRA FEW 1200ft BKN 1800ft 6.1 5.3 1008.8
29-09 03:03 2 03 VIS 10 km FBL SHRA FEW 1200ft BKN 1800ft 6.1 5.3 1008.8
29-09 02:53 2 03 VIS 10 km FBL SHRA FEW 1200ft BKN 1800ft 6.1 5.2 1008.7
29-09 02:43 3 05 VIS 10 km FBL SHRA FEW 1200ft BKN 1800ft 6.2 5.3 1008.7
29-09 02:33 3 05 VIS 10 km FBL SHRA FEW 1200ft BKN 1800ft 6.2 5.3 1008.7
29-09 02:23 3 05 VIS 10 km FBL SHRA FEW 1200ft BKN 1800ft 6.2 5.3 1008.7
29-09 02:13 4 07 VIS 10 km FBL SHRA FEW 1200ft BKN 1800ft 6.2 5.3 1008.8
29-09 02:03 3 06 VIS 10 km FBL SHRA FEW 1200ft BKN 1800ft 6.2 5.2 1008.7
29-09 01:53 4 07 VIS 10 km FBL SHRA FEW 1200ft BKN 1800ft 6.1 5.2 1008.6
29-09 01:43 4 07 VIS 10 km FBL SHRA FEW 1200ft BKN 1800ft 6.2 5.3 1008.6
29-09 01:33 4 07 VIS 10 km FBL SHRA FEW 1200ft BKN 1800ft 6.1 5.1 1008.6
29-09 01:23 4 07 VIS 10 km FBL SHRA FEW 1200ft BKN 1800ft 6.1 5.1 1008.7
29-09 01:13 3 06 VIS 10 km FBL SHRA FEW 1200ft BKN 1800ft 6.2 5.3 1008.6
29-09 01:03 4 07 VIS 10 km FBL SHRA FEW 1200ft BKN 1800ft 6.2 5.4 1008.6
29-09 00:53 4 07 VIS 10 km FBL SHRA FEW 1200ft BKN 1800ft 6.2 5.3 1008.6
29-09 00:43 3 06 VIS 10 km FBL SHRA FEW 1200ft BKN 1800ft 6.2 5.4 1008.6
29-09 00:33 4 07 VIS 10 km FBL SHRA FEW 1200ft BKN 1800ft 6.3 5.4 1008.6
29-09 00:23 3 06 VIS 10 km FBL SHRA FEW 1200ft BKN 1800ft 6.4 5.5 1008.7
29-09 00:13 4 07 VIS 10 km FBL SHRA FEW 1200ft BKN 1800ft 6.4 5.5 1008.7
29-09 00:03 4 08 VIS 10 km FBL SHRA FEW 1200ft BKN 1800ft 6.3 5.4 1008.7
28-09 23:53 4 07 VIS 10 km FBL SHRA FEW 1200ft BKN 1800ft 6.3 5.4 1008.6
28-09 23:43 3 06 VIS 10 km FBL SHRA FEW 1200ft BKN 1800ft 6.3 5.5 1008.7
28-09 23:33 4 07 VIS 10 km FBL SHRA FEW 1200ft BKN 1800ft 6.3 5.7 1008.7
28-09 23:23 4 07 VIS 10 km FBL SHRA FEW 1200ft BKN 1800ft 6.3 5.8 1008.6
28-09 23:13 3 06 VIS 10 km FBL SHRA FEW 1200ft BKN 1800ft 6.3 5.8 1008.7
28-09 23:03 2 04 VIS 10 km FBL SHRA FEW 1200ft BKN 1800ft 6.4 5.8 1008.7
28-09 22:53 3 06 VIS 10 km FBL SHRA FEW 1200ft BKN 1800ft 6.4 5.7 1008.6
28-09 22:43 3 05 VIS 10 km FBL SHRA FEW 1200ft BKN 1800ft 6.4 5.7 1008.7
28-09 22:33 3 05 VIS 10 km FBL SHRA FEW 1200ft BKN 1800ft 6.4 5.8 1008.7
28-09 22:23 3 05 VIS 10 km FBL SHRA FEW 1200ft BKN 1800ft 6.4 5.8 1008.6
28-09 22:13 4 07 VIS 10 km FBL SHRA FEW 1200ft BKN 1800ft 6.4 5.8 1008.6
28-09 22:03 3 06 VIS 10 km FBL SHRA FEW 1200ft BKN 1800ft 6.3 5.8 1008.6
28-09 21:53 3 06 VIS 10 km FBL SHRA FEW 1200ft BKN 1800ft 6.4 5.9 1008.5
28-09 21:43 4 08 VIS 10 km FBL SHRA FEW 1200ft BKN 1800ft 6.4 5.9 1008.5
28-09 21:33 4 07 VIS 10 km FBL SHRA FEW 1200ft BKN 1800ft 6.4 5.9 1008.4
28-09 21:23 3 06 VIS 10 km FBL SHRA FEW 1200ft BKN 1800ft 6.4 5.9 1008.4
28-09 21:13 4 07 VIS 10 km FBL SHRA FEW 1200ft BKN 1800ft 6.3 5.8 1008.4
28-09 21:03 4 07 VIS 10 km FBL SHRA FEW 1200ft BKN 1800ft 6.3 5.8 1008.4
28-09 20:53 3 05 VIS 10 km FBL SHRA FEW 1200ft BKN 1800ft 6.2 5.7 1008.3
28-09 20:43 4 07 VIS 10 km FBL SHRA FEW 1200ft BKN 1800ft 6.2 5.7 1008.2
28-09 20:33 4 07 VIS 10 km FBL SHRA FEW 1200ft BKN 1800ft 6.1 5.5 1008.1
28-09 20:23 3 06 VIS 10 km FBL SHRA FEW 1200ft BKN 1800ft 6.2 5.6 1008.1
28-09 20:13 3 05 VIS 10 km FBL SHRA FEW 1200ft BKN 1800ft 6.3 5.7 1008.1
28-09 20:03 3 05 VIS 10 km FBL SHRA FEW 1200ft BKN 1800ft 6.3 5.5 1008.0
28-09 19:53 3 06 VIS 10 km FBL SHRA FEW 1200ft BKN 1800ft 6.2 5.5 1008.0
28-09 19:43 3 06 VIS 10 km FBL SHRA FEW 1200ft BKN 1800ft 6.2 5.4 1007.9
28-09 19:33 4 07 VIS 10 km FBL SHRA FEW 1200ft BKN 1800ft 6.2 5.4 1007.8
28-09 19:23 5 09 VIS 10 km FBL SHRA FEW 1200ft BKN 1800ft 6.3 5.6 1007.8
28-09 19:13 5 09 VIS 10 km FBL SHRA FEW 1200ft BKN 1800ft 6.4 5.7 1007.8
28-09 19:03 5 10 VIS 10 km FBL SHRA FEW 1200ft BKN 1800ft 6.5 5.7 1007.7
28-09 18:53 5 09 VIS 10 km FBL SHRA FEW 1200ft BKN 1800ft 6.5 5.6 1007.6
28-09 18:43 5 09 VIS 10 km FBL SHRA FEW 1200ft BKN 1800ft 6.5 5.7 1007.5

Met data is updated every half hour and is for information only.
* Visibility, weather and cloud values are updated during the airport’s service hours only.
Flight planning documentation is available on opmet.dmi.dk.
For meteorological abbreviations, click here